Flag for Cuba Weather past 2 weeks in Santiago de Cuba, Cuba

Now
68 °F

Passing clouds.


Feels Like: 68 °F
Forecast: 68 / 89 °F
Wind: 6 mph from North

Location: Santiago De Cuba - Oriente

Current Time: Dec 22, 2014 at 6:28:00 AM

Latest Report: Dec 22, 2014 at 5:50 AM


Visibility: 6 mi

Pressure: 29.98 "Hg

Humidity: 94%

Dew point: 66 °F

Location of Santiago de CubaLocation

Historic Weather in Santiago de Cuba — Graph

°F

Santiago de Cuba temperature yesterday

Maximum temperature yesterday: 84 °F (at 10:52 AM)
Minimum temperature yesterday: 70 °F (at 12:53 AM)
Average temperature yesterday: 77 °F

Past Weeks' High & Low Weather Summary

 TemperatureHumidityPressure
High88 °F (Dec 7, 1:51 PM)88% (Dec 20, 11:52 PM)30.09 "Hg (Dec 20, 11:52 PM)
Low68 °F (Dec 10, 6:51 AM)31% (Dec 20, 10:50 AM)29.89 "Hg (Dec 7, 1:51 PM)
Average76 °F67%29.99 "Hg
* Reported Dec 7 4:50 AM — Dec 22 4:50 AM, Santiago de Cuba, Weather by CustomWeather, © 2014

Note: Actual official high and low records may vary slightly from our data, if they occured in-between our weather recording intervals... More about our weather records

Advertising

Santiago de Cuba weather history for previous 24 hours

 ConditionsComfort  
Time TempWeatherWind HumidityBarometerVisibility
4:50 AM
Dec 22
70 °FPassing clouds.6 mph88%29.98 "Hg6 mi
3:51 AM70 °FPassing clouds.5 mph88%29.98 "Hg6 mi
2:51 AM70 °FPassing clouds.3 mph88%29.98 "Hg6 mi
1:50 AM70 °FPassing clouds.5 mph88%30.01 "Hg6 mi
12:50 AM70 °FPassing clouds.5 mph88%30.01 "Hg6 mi
11:50 PM
Dec 21
72 °FPassing clouds.5 mph88%30.04 "Hg6 mi
10:50 PM73 °FPassing clouds.6 mph83%30.04 "Hg6 mi
9:51 PM75 °FPassing clouds.5 mph83%30.04 "Hg6 mi
8:50 PM77 °FPassing clouds.5 mph79%30.04 "Hg6 mi
7:50 PM79 °FPassing clouds.6 mph74%30.04 "Hg6 mi
6:50 PM79 °FPassing clouds.5 mph74%30.01 "Hg6 mi
5:51 PM79 °FPassing clouds.5 mph74%29.98 "Hg6 mi
4:50 PM81 °FPassing clouds.8 mph70%29.98 "Hg6 mi
3:52 PM82 °FPassing clouds.9 mph62%29.98 "Hg6 mi
2:52 PM82 °FPassing clouds.9 mph70%29.98 "Hg6 mi
1:51 PM84 °FScattered clouds.9 mph62%29.98 "Hg6 mi
12:53 PM82 °FPassing clouds.7 mph62%30.01 "Hg6 mi
11:51 AM84 °FPassing clouds.8 mph51%30.04 "Hg6 mi
10:52 AM84 °FPassing clouds.6 mph51%30.07 "Hg6 mi
9:51 AM82 °FPassing clouds.5 mph51%30.07 "Hg6 mi
8:51 AM81 °FPassing clouds.5 mph58%30.07 "Hg6 mi
7:51 AM73 °FPassing clouds.7 mph74%30.07 "Hg6 mi
6:51 AM70 °FPassing clouds.7 mph83%30.04 "Hg6 mi
Weather by CustomWeather, © 2014

See weather overviewHow to use our weather pages